Find Starlink 31459

NORAD ID: 59233 Int'l Des: 2024-049 Owner: SPXS Country: US Constellation: starlink operational
LEOCIRCULAR

当前视图

正在加载3D地球...

About Starlink 31459

Starlink 31459 (NORAD 59233) is a starlink constellation satellite (v2 mini) launched Mar 16, 2024 by SPXS of US. It operates in LEO, CIRCULAR orbit with a mass of 730.00 kg.

即将过境

Passes for default location (London). Set your location on the main map for personalized predictions.

高度历史

Loading altitude history...

两行轨道根数

1 59233U 24049C 26237.10925389 .00000827 00000-0 39590-4 0 9995
2 59233 43.0068 272.3982 0003211 284.1482 75.9013 15.27579281138154
Epoch: Aug 25, 2026 • Age: 34 hours

当前状态

高度 482.3 km
远地点 / 近地点 N/A
速度 7.63 km/s
星下点 -3.96°S, 88.43°E
发射日期 Mar 16, 2024
运行时间 2.4 years
类型 internet

技术详情

分类 Payload
质量 730.00 kg
干质量 700.00 kg
总质量 730.00 kg
长度 0.30 m
直径 4.10 m
跨度 29.00 m
形状 Box + pan
制造商 SPXS
平台类型 Starlink V2M
阶段状态 In Orbit
所有者/国家 SPXS/US

Most Searched